TimeEDT,TemperatureF,Dew PointF,Humidity,Sea Level PressureIn,VisibilityMPH,Wind Direction,Wind SpeedMPH,Gust SpeedMPH,PrecipitationIn,Events,Conditions,WindDirDegrees,DateUTC
12:51 AM,33.1,12.0,42,30.31,10.0,NNW,12.7,-,N/A,,Clear,340,2013-04-04 04:51:00
1:51 AM,30.9,12.0,46,30.32,10.0,Calm,Calm,-,N/A,,Clear,0,2013-04-04 05:51:00
2:51 AM,30.0,12.0,47,30.35,10.0,WSW,5.8,-,N/A,,Clear,250,2013-04-04 06:51:00
3:51 AM,30.0,12.9,49,30.35,10.0,NW,5.8,-,N/A,,Clear,310,2013-04-04 07:51:00
4:51 AM,30.0,12.9,49,30.36,10.0,SSW,5.8,-,N/A,,Clear,210,2013-04-04 08:51:00
5:51 AM,27.0,12.9,56,30.38,10.0,WSW,4.6,-,N/A,,Clear,240,2013-04-04 09:51:00
6:51 AM,27.0,14.0,58,30.40,10.0,South,3.5,-,N/A,,Clear,190,2013-04-04 10:51:00
7:51 AM,30.0,18.0,61,30.41,10.0,WSW,4.6,-,N/A,,Clear,240,2013-04-04 11:51:00
8:51 AM,34.0,15.1,46,30.40,10.0,West,4.6,-,N/A,,Clear,270,2013-04-04 12:51:00
9:51 AM,36.0,16.0,44,30.39,10.0,NW,3.5,-,N/A,,Clear,310,2013-04-04 13:51:00
10:51 AM,37.9,16.0,41,30.36,10.0,Calm,Calm,-,N/A,,Clear,0,2013-04-04 14:51:00
11:51 AM,41.0,17.1,38,30.34,10.0,Variable,4.6,-,N/A,,Clear,0,2013-04-04 15:51:00
12:51 PM,45.0,17.1,33,30.30,10.0,Variable,3.5,-,N/A,,Clear,0,2013-04-04 16:51:00
1:51 PM,48.9,19.0,31,30.27,10.0,WSW,8.1,-,0.00,,Clear,240,2013-04-04 17:51:00
2:51 PM,51.1,21.0,31,30.22,10.0,SSW,8.1,-,N/A,,Clear,200,2013-04-04 18:51:00
3:51 PM,52.0,19.0,27,30.19,10.0,SSW,10.4,-,N/A,,Clear,200,2013-04-04 19:51:00
4:51 PM,51.8,19.4,28,30.16,10.0,SW,6.9,-,N/A,,Clear,220,2013-04-04 20:51:00
5:51 PM,52.0,19.0,27,30.15,10.0,South,11.5,-,N/A,,Clear,190,2013-04-04 21:51:00
6:51 PM,50.0,19.0,29,30.16,10.0,SSW,11.5,20.7,N/A,,Clear,210,2013-04-04 22:51:00
7:51 PM,46.9,17.1,30,30.13,10.0,South,10.4,-,N/A,,Clear,190,2013-04-04 23:51:00
8:51 PM,45.0,16.0,31,30.13,10.0,SSW,6.9,-,N/A,,Clear,200,2013-04-05 00:51:00
9:51 PM,44.1,19.0,37,30.13,10.0,SSW,6.9,-,N/A,,Clear,200,2013-04-05 01:51:00
10:51 PM,43.0,19.9,40,30.11,10.0,SSW,5.8,-,N/A,,Clear,210,2013-04-05 02:51:00
11:51 PM,41.0,19.9,43,30.08,10.0,SW,5.8,-,N/A,,Clear,220,2013-04-05 03:51:00